Location: Stockholm
(59.3330°N, 18.0500°E)
Time: 00:22:31
(UTC+02:00)

NOAA 18 - Pass Details

Date: 10 April 2023
Orbit: 838 x 860 km, 98.9° (Epoch: 02 June)

Event Time Altitude Azimuth Distance (km) Brightness Sun altitude
Exits shadow 22:56:59 22° 195° (SSW) 1,788 6.5 -18.9°
Maximum altitude 23:00:21 49° 260° (W) 1,107 5.9 -19.1°
Drops below altitude 10° 23:05:45 10° 335° (NNW) 2,507 8.9 -19.5°
Sets 23:08:13 0° 341° (NNW) 3,445 10.0 -19.6°
